Location: Arnolds Mill
(42.3415°N, 73.5951°W)
Time: 11:34:55
(UTC+00:00)

BlueWalker 3 - Pass Details

Date: 22 June 2024
Orbit: 480 x 492 km, 53.2° (Epoch: 13 July)

Event Time Altitude Azimuth Distance (km) Brightness Sun altitude
Rises 06:07:35 0° 310° (NW) 2,540 5.8 -22.2°
Reaches altitude 10° 06:09:55 10° 321° (NW) 1,658 5.0 -22.1°
Maximum altitude 06:13:17 30° 25° (NNE) 876 3.8 -21.9°
Drops below altitude 10° 06:16:37 10° 89° (E) 1,655 4.8 -21.7°
Sets 06:18:58 0° 100° (E) 2,533 5.6 -21.5°
